TimeHST,TemperatureF,Dew PointF,Humidity,Sea Level PressureIn,VisibilityMPH,Wind Direction,Wind SpeedMPH,Gust SpeedMPH,PrecipitationIn,Events,Conditions,WindDirDegrees,DateUTC
12:56 AM,64.9,61.9,90,29.98,10.0,NNE,6.9,-,N/A,,Clear,20,2013-01-27 10:56:00
1:38 AM,64.4,62.6,94,30.02,10.0,ENE,6.9,-,N/A,,Mostly Cloudy,60,2013-01-27 11:38:00
1:56 AM,63.9,61.0,90,29.95,10.0,NE,4.6,-,N/A,,Scattered Clouds,40,2013-01-27 11:56:00
2:56 AM,61.9,59.0,90,29.95,10.0,ENE,5.8,-,N/A,,Clear,70,2013-01-27 12:56:00
3:56 AM,61.9,59.0,90,29.96,10.0,NE,4.6,-,N/A,,Clear,50,2013-01-27 13:56:00
4:56 AM,61.9,57.9,87,29.96,10.0,East,6.9,-,N/A,,Clear,90,2013-01-27 14:56:00
5:56 AM,63.0,57.9,84,29.98,10.0,ESE,3.5,-,N/A,,Partly Cloudy,110,2013-01-27 15:56:00
6:55 AM,62.6,57.2,82,30.04,10.0,Calm,Calm,-,N/A,,Mostly Cloudy,0,2013-01-27 16:55:00
6:56 AM,63.0,57.9,84,30.00,10.0,SSE,5.8,-,N/A,,Mostly Cloudy,160,2013-01-27 16:56:00
7:04 AM,64.4,60.8,88,30.04,10.0,South,5.8,-,N/A,,Mostly Cloudy,170,2013-01-27 17:04:00
7:32 AM,68.0,64.4,88,30.04,10.0,South,8.1,-,N/A,,Mostly Cloudy,190,2013-01-27 17:32:00
7:40 AM,68.0,64.4,88,30.04,10.0,South,6.9,-,N/A,,Mostly Cloudy,190,2013-01-27 17:40:00
7:55 AM,68.0,64.4,88,30.05,10.0,SSW,8.1,-,N/A,,Mostly Cloudy,200,2013-01-27 17:55:00
7:56 AM,68.0,64.4,88,30.05,10.0,South,9.2,-,N/A,,Mostly Cloudy,190,2013-01-27 17:56:00
8:06 AM,69.8,66.2,88,30.05,10.0,South,11.5,-,N/A,,Mostly Cloudy,190,2013-01-27 18:06:00
8:13 AM,69.8,64.4,83,30.05,10.0,South,10.4,-,N/A,,Mostly Cloudy,190,2013-01-27 18:13:00
8:25 AM,69.8,64.4,83,30.05,10.0,South,12.7,-,N/A,,Mostly Cloudy,180,2013-01-27 18:25:00
8:34 AM,69.8,64.4,83,30.05,10.0,South,13.8,-,N/A,,Mostly Cloudy,170,2013-01-27 18:34:00
8:50 AM,71.6,64.4,78,30.05,10.0,SSE,4.6,-,N/A,,Mostly Cloudy,160,2013-01-27 18:50:00
8:56 AM,70.9,64.9,81,30.00,10.0,South,12.7,-,N/A,,Mostly Cloudy,170,2013-01-27 18:56:00
9:09 AM,71.6,64.4,78,30.05,10.0,SSE,12.7,-,N/A,,Scattered Clouds,160,2013-01-27 19:09:00
9:55 AM,75.2,64.4,69,30.05,10.0,SSE,16.1,-,N/A,,Scattered Clouds,160,2013-01-27 19:55:00
9:56 AM,74.8,63.9,69,30.00,10.0,SSE,13.8,-,N/A,,Clear,160,2013-01-27 19:56:00
10:55 AM,73.4,64.4,73,30.04,10.0,SSE,15.0,-,N/A,,Scattered Clouds,160,2013-01-27 20:55:00
10:56 AM,75.9,63.0,64,29.99,10.0,SSE,17.3,23.0,N/A,,Scattered Clouds,160,2013-01-27 20:56:00
11:34 AM,75.2,64.4,69,30.03,10.0,SSE,17.3,23.0,N/A,,Mostly Cloudy,150,2013-01-27 21:34:00
11:55 AM,75.2,62.6,65,30.02,10.0,SE,17.3,-,N/A,,Mostly Cloudy,140,2013-01-27 21:55:00
11:56 AM,74.8,63.0,66,29.97,10.0,SE,16.1,-,N/A,,Scattered Clouds,140,2013-01-27 21:56:00
12:09 PM,73.4,64.4,73,30.02,10.0,SE,15.0,-,N/A,,Mostly Cloudy,140,2013-01-27 22:09:00
12:45 PM,75.2,64.4,69,30.01,10.0,South,17.3,23.0,N/A,,Scattered Clouds,170,2013-01-27 22:45:00
12:56 PM,75.9,63.9,66,29.94,10.0,SSE,15.0,-,N/A,,Mostly Cloudy,150,2013-01-27 22:56:00
1:09 PM,75.2,64.4,69,29.99,10.0,SSE,16.1,-,N/A,,Scattered Clouds,160,2013-01-27 23:09:00
1:55 PM,75.2,64.4,69,29.97,10.0,South,20.7,25.3,N/A,,Scattered Clouds,170,2013-01-27 23:55:00
1:56 PM,75.9,64.9,69,29.92,10.0,SSE,16.1,-,N/A,,Partly Cloudy,160,2013-01-27 23:56:00
2:45 PM,75.2,62.6,65,29.95,10.0,SSE,17.3,26.5,N/A,,Scattered Clouds,160,2013-01-28 00:45:00
2:56 PM,75.9,63.0,64,29.90,10.0,SSE,19.6,-,N/A,,Partly Cloudy,160,2013-01-28 00:56:00
3:56 PM,72.9,63.9,73,29.91,10.0,South,18.4,-,N/A,,Mostly Cloudy,180,2013-01-28 01:56:00
4:10 PM,73.4,62.6,69,29.96,10.0,South,16.1,-,N/A,,Mostly Cloudy,170,2013-01-28 02:10:00
4:55 PM,73.4,64.4,73,29.96,10.0,South,19.6,-,N/A,,Scattered Clouds,170,2013-01-28 02:55:00
4:56 PM,73.4,64.4,73,29.96,10.0,South,15.0,-,N/A,,Mostly Cloudy,170,2013-01-28 02:56:00
5:34 PM,71.6,64.4,78,29.97,10.0,South,15.0,-,N/A,,Mostly Cloudy,170,2013-01-28 03:34:00
5:56 PM,70.9,63.9,78,29.93,10.0,South,15.0,-,N/A,,Mostly Cloudy,170,2013-01-28 03:56:00
6:56 PM,70.0,63.9,81,29.95,10.0,South,13.8,-,N/A,,Mostly Cloudy,180,2013-01-28 04:56:00
7:56 PM,69.8,64.4,83,30.01,10.0,SSE,10.4,-,N/A,,Mostly Cloudy,160,2013-01-28 05:56:00
8:05 PM,69.8,64.4,83,30.01,10.0,SSE,11.5,-,N/A,,Mostly Cloudy,160,2013-01-28 06:05:00
8:49 PM,69.8,66.2,88,30.03,-9999.0,SSE,8.1,-,0.00,,Mostly Cloudy,160,2013-01-28 06:49:00
8:56 PM,68.9,65.8,90,29.98,-9999.0,SSE,9.2,-,0.00,,Mostly Cloudy,160,2013-01-28 06:56:00
9:08 PM,69.8,64.4,83,30.03,-9999.0,South,10.4,-,N/A,,Mostly Cloudy,170,2013-01-28 07:08:00
9:15 PM,69.8,64.4,83,30.03,10.0,South,10.4,-,N/A,,Scattered Clouds,180,2013-01-28 07:15:00
9:35 PM,69.8,66.2,88,30.03,10.0,South,10.4,-,N/A,,Mostly Cloudy,180,2013-01-28 07:35:00
9:56 PM,70.0,64.9,84,29.98,10.0,South,11.5,-,0.00,Rain,Light Rain,190,2013-01-28 07:56:00
10:08 PM,69.8,64.4,83,30.04,10.0,South,10.4,-,0.00,,Mostly Cloudy,190,2013-01-28 08:08:00
10:56 PM,69.8,66.2,88,30.03,10.0,South,9.2,-,N/A,,Mostly Cloudy,170,2013-01-28 08:56:00
11:27 PM,69.8,64.4,83,30.03,10.0,South,8.1,-,N/A,,Mostly Cloudy,180,2013-01-28 09:27:00
11:56 PM,70.0,65.8,87,29.96,10.0,SSE,10.4,-,N/A,,Mostly Cloudy,160,2013-01-28 09:56:00